| time (UTC) | temp F | wind direction | speed MPH | gust MPH | rain 1hr in | rain 24hr in | rain mn in | humidity % | barometer mb |
| 20260503050053 | 37 | 64 | 0.0 | 0.0 | 0.00 | 0.00 | 0.00 | 97 | |
| 20260503045418 | 37 | 64 | 0.0 | 0.0 | 0.00 | 0.00 | 0.00 | 97 | |
| 20260503044845 | 37 | 64 | 0.0 | 1.0 | 0.00 | 0.00 | 0.00 | 97 | |
| 20260503044242 | 37 | 64 | 0.0 | 0.0 | 0.00 | 0.00 | 0.00 | 96 | |
| 20260503043639 | 37 | 64 | 0.0 | 0.0 | 0.00 | 0.00 | 0.00 | 96 | |
| 20260503043016 | 37 | 64 | 0.0 | 0.0 | 0.00 | 0.00 | 0.00 | 96 | |
| 20260503042443 | 37 | 64 | 0.0 | 1.0 | 0.00 | 0.00 | 0.00 | 96 | |
| 20260503041823 | 38 | 64 | 0.0 | 1.0 | 0.00 | 0.00 | 0.00 | 95 | |
| 20260503040623 | 38 | 64 | 0.0 | 0.0 | 0.00 | 0.00 | 0.00 | 95 | |
| 20260503040047 | 38 | 64 | 0.0 | 0.0 | 0.00 | 0.00 | 0.00 | 94 | |
| 20260503035451 | 38 | 63 | 0.0 | 0.0 | 0.00 | 0.00 | 0.00 | 94 | |
| 20260503034851 | 39 | 64 | 0.0 | 0.0 | 0.00 | 0.00 | 0.00 | 94 | |
| 20260503034216 | 39 | 64 | 0.0 | 0.0 | 0.00 | 0.00 | 0.00 | 94 | |
| 20260503033638 | 39 | 64 | 0.0 | 0.0 | 0.00 | 0.00 | 0.00 | 93 | |
| 20260503032419 | 39 | 64 | 0.0 | 0.0 | 0.00 | 0.00 | 0.00 | 92 | |
| 20260503031839 | 40 | 64 | 0.0 | 0.0 | 0.00 | 0.00 | 0.00 | 92 | |
| 20260503031244 | 40 | 64 | 0.0 | 0.0 | 0.00 | 0.00 | 0.00 | 91 | |
| 20260503030642 | 40 | 64 | 0.0 | 0.0 | 0.00 | 0.00 | 0.00 | 90 | |
| 20260503030024 | 40 | 64 | 0.0 | 0.0 | 0.00 | 0.00 | 0.00 | 89 | |
| 20260503025424 | 41 | 64 | 0.0 | 0.0 | 0.00 | 0.00 | 0.00 | 88 | |
| 20260503024829 | 41 | 64 | 0.0 | 0.0 | 0.00 | 0.00 | 0.00 | 88 | |
| 20260503024233 | 42 | 63 | 0.0 | 0.0 | 0.00 | 0.00 | 0.00 | 88 | |
| 20260503023618 | 42 | 64 | 0.0 | 0.0 | 0.00 | 0.00 | 0.00 | 87 | |
| 20260503023036 | 43 | 64 | 0.0 | 0.0 | 0.00 | 0.00 | 0.00 | 85 | |
| 20260503022451 | 43 | 63 | 0.0 | 0.0 | 0.00 | 0.00 | 0.00 | 84 | |
| 20260503021851 | 43 | 64 | 0.0 | 0.0 | 0.00 | 0.00 | 0.00 | 85 | |
| 20260503021241 | 43 | 64 | 0.0 | 0.0 | 0.00 | 0.00 | 0.00 | 85 | |
| 20260503020644 | 43 | 64 | 0.0 | 0.0 | 0.00 | 0.00 | 0.00 | 84 | |
| 20260503020048 | 43 | 64 | 0.0 | 0.0 | 0.00 | 0.00 | 0.00 | 84 | |
| 20260503014817 | 44 | 64 | 0.0 | 1.0 | 0.00 | 0.00 | 0.00 | 80 | |
| 20260503014252 | 44 | 63 | 0.0 | 0.0 | 0.00 | 0.00 | 0.00 | 79 | |
| 20260503013626 | 45 | 63 | 0.0 | 0.0 | 0.00 | 0.00 | 0.00 | 78 | |
| 20260503013014 | 45 | 64 | 0.0 | 0.0 | 0.00 | 0.00 | 0.00 | 77 | |
| 20260503011811 | 46 | 64 | 0.0 | 0.0 | 0.00 | 0.00 | 0.00 | 77 | |
| 20260503011231 | 46 | 64 | 0.0 | 0.0 | 0.00 | 0.00 | 0.00 | 75 | |
| 20260503010623 | 46 | 64 | 0.0 | 1.0 | 0.00 | 0.00 | 0.00 | 75 | |
| 20260503010028 | 46 | 64 | 0.0 | 0.0 | 0.00 | 0.00 | 0.00 | 74 | |
| 20260503005413 | 46 | 64 | 0.0 | 0.0 | 0.00 | 0.00 | 0.00 | 74 | |
| 20260503004843 | 46 | 64 | 0.0 | 0.0 | 0.00 | 0.00 | 0.00 | 73 | |
| 20260503004211 | 46 | 64 | 0.0 | 0.0 | 0.00 | 0.00 | 0.00 | 70 | |
| 20260503003641 | 47 | 64 | 0.0 | 0.0 | 0.00 | 0.00 | 0.00 | 71 | |
| 20260503003018 | 47 | 64 | 0.0 | 0.0 | 0.00 | 0.00 | 0.00 | 69 | |
| 20260503001815 | 48 | 64 | 0.0 | 0.0 | 0.00 | 0.00 | 0.00 | 65 | |
| 20260503001232 | 48 | 64 | 0.0 | 0.0 | 0.00 | 0.00 | 0.00 | 66 | |
| 20260503000048 | 49 | 63 | 0.0 | 1.0 | 0.00 | 0.00 | 0.00 | 61 | |
| 20260502235410 | 50 | 64 | 0.0 | 1.0 | 0.00 | 0.00 | 0.00 | 62 | |
| 20260502234841 | 50 | 166 | 3.0 | 4.0 | 0.00 | 0.00 | 0.00 | 54 | |
| 20260502234245 | 50 | 64 | 0.0 | 0.0 | 0.00 | 0.00 | 0.00 | 61 | |
| 20260502233641 | 51 | 64 | 0.0 | 1.0 | 0.00 | 0.00 | 0.00 | 59 | |
| 20260502232429 | 51 | 58 | 0.0 | 1.0 | 0.00 | 0.00 | 0.00 | 55 | |
| 20260502231840 | 52 | 157 | 2.0 | 4.0 | 0.00 | 0.00 | 0.00 | 51 | |
| 20260502231212 | 52 | 104 | 1.0 | 4.0 | 0.00 | 0.00 | 0.00 | 49 | |
| 20260502230630 | 53 | 226 | 2.0 | 4.0 | 0.00 | 0.00 | 0.00 | 49 | |
| 20260502230040 | 53 | 141 | 0.0 | 2.0 | 0.00 | 0.00 | 0.00 | 53 | |
| 20260502225434 | 53 | 73 | 0.0 | 2.0 | 0.00 | 0.00 | 0.00 | 56 | |
| 20260502224832 | 53 | 124 | 2.0 | 3.0 | 0.00 | 0.00 | 0.00 | 50 | |
| 20260502224227 | 54 | 64 | 0.0 | 1.0 | 0.00 | 0.00 | 0.00 | 52 | |
| 20260502223035 | 52 | 28 | 1.0 | 1.0 | 0.00 | 0.00 | 0.00 | 52 | |
| 20260502222421 | 53 | 47 | 1.0 | 2.0 | 0.00 | 0.00 | 0.00 | 52 | |
| 20260502221839 | 53 | 164 | 0.0 | 1.0 | 0.00 | 0.00 | 0.00 | 53 | |
| 20260502221254 | 53 | 164 | 1.0 | 2.0 | 0.00 | 0.00 | 0.00 | 50 | |
| 20260502220621 | 53 | 38 | 2.0 | 6.0 | 0.00 | 0.00 | 0.00 | 48 | |
| 20260502220030 | 55 | 120 | 3.0 | 7.0 | 0.00 | 0.00 | 0.00 | 49 | |
| 20260502215411 | 56 | 61 | 2.0 | 2.0 | 0.00 | 0.00 | 0.00 | 47 | |
| 20260502214823 | 55 | 159 | 2.0 | 6.0 | 0.00 | 0.00 | 0.00 | 47 | |
| 20260502213651 | 54 | 137 | 1.0 | 6.0 | 0.00 | 0.00 | 0.00 | 48 | |
| 20260502213041 | 54 | 254 | 2.0 | 6.0 | 0.00 | 0.00 | 0.00 | 49 | |
| 20260502212448 | 54 | 184 | 4.0 | 4.0 | 0.00 | 0.00 | 0.00 | 49 | |
| 20260502211814 | 53 | 59 | 2.0 | 4.0 | 0.00 | 0.00 | 0.00 | 47 | |
| 20260502211238 | 53 | 136 | 1.0 | 4.0 | 0.00 | 0.00 | 0.00 | 48 | |
| 20260502210627 | 53 | 77 | 1.0 | 3.0 | 0.00 | 0.00 | 0.00 | 50 | |
| 20260502210034 | 53 | 78 | 2.0 | 2.0 | 0.00 | 0.00 | 0.00 | 51 | |
| 20260502205414 | 54 | 25 | 0.0 | 1.0 | 0.00 | 0.00 | 0.00 | 50 | |
| 20260502204235 | 54 | 121 | 4.0 | 4.0 | 0.00 | 0.00 | 0.00 | 47 | |
| 20260502203612 | 55 | 114 | 1.0 | 3.0 | 0.00 | 0.00 | 0.00 | 47 | |
| 20260502203052 | 56 | 89 | 4.0 | 8.0 | 0.00 | 0.00 | 0.00 | 44 | |
| 20260502202443 | 52 | 75 | 1.0 | 3.0 | 0.00 | 0.00 | 0.00 | 49 | |
| 20260502201845 | 52 | 51 | 2.0 | 8.0 | 0.00 | 0.00 | 0.00 | 49 | |
| 20260502201211 | 53 | 148 | 1.0 | 9.0 | 0.00 | 0.00 | 0.00 | 50 | |
| 20260502200650 | 54 | 102 | 1.0 | 3.0 | 0.00 | 0.00 | 0.00 | 47 | |
| 20260502200039 | 55 | 91 | 2.0 | 2.0 | 0.00 | 0.00 | 0.00 | 46 | |
| 20260502195414 | 54 | 47 | 2.0 | 3.0 | 0.00 | 0.00 | 0.00 | 47 | |
| 20260502194838 | 55 | 40 | 3.0 | 10.0 | 0.00 | 0.00 | 0.00 | 45 | |
| 20260502194248 | 56 | 77 | 3.0 | 6.0 | 0.00 | 0.00 | 0.00 | 42 | |
| 20260502193634 | 56 | 161 | 2.0 | 6.0 | 0.00 | 0.00 | 0.00 | 45 | |
| 20260502193038 | 54 | 36 | 1.0 | 2.0 | 0.00 | 0.00 | 0.00 | 46 | |
| 20260502192426 | 56 | 52 | 4.0 | 11.0 | 0.00 | 0.00 | 0.00 | 45 | |
| 20260502191852 | 55 | 14 | 1.0 | 3.0 | 0.00 | 0.00 | 0.00 | 46 | |
| 20260502190615 | 55 | 44 | 3.0 | 7.0 | 0.00 | 0.00 | 0.00 | 45 | |
| 20260502190018 | 55 | 40 | 2.0 | 2.0 | 0.00 | 0.00 | 0.00 | 47 | |
| 20260502185437 | 54 | 161 | 1.0 | 12.0 | 0.00 | 0.00 | 0.00 | 47 | |
| 20260502184255 | 53 | 123 | 1.0 | 8.0 | 0.00 | 0.00 | 0.00 | 47 | |
| 20260502183654 | 53 | 170 | 0.0 | 3.0 | 0.00 | 0.00 | 0.00 | 47 | |
| 20260502183016 | 53 | 114 | 0.0 | 4.0 | 0.00 | 0.00 | 0.00 | 48 | |
| 20260502182440 | 54 | 85 | 5.0 | 7.0 | 0.00 | 0.00 | 0.00 | 47 | |
| 20260502181833 | 54 | 31 | 1.0 | 2.0 | 0.00 | 0.00 | 0.00 | 50 | |
| 20260502181254 | 54 | 23 | 1.0 | 2.0 | 0.00 | 0.00 | 0.00 | 47 | |
| 20260502180621 | 53 | 50 | 0.0 | 3.0 | 0.00 | 0.00 | 0.00 | 49 | |
| 20260502164244 | 53 | 52 | 3.0 | 7.0 | 0.00 | 0.00 | 0.00 | 49 | |
| 20260502163631 | 53 | 169 | 2.0 | 6.0 | 0.00 | 0.00 | 0.00 | 50 | |
| 20260502163054 | 54 | 217 | 2.0 | 3.0 | 0.00 | 0.00 | 0.00 | 50 | |
| 20260502162442 | 55 | 160 | 2.0 | 8.0 | 0.00 | 0.00 | 0.00 | 47 | |
| 20260502161816 | 54 | 40 | 0.0 | 4.0 | 0.00 | 0.00 | 0.00 | 46 | |
| 20260502161221 | 53 | 60 | 2.0 | 3.0 | 0.00 | 0.00 | 0.00 | 49 | |
| 20260502160623 | 53 | 86 | 2.0 | 7.0 | 0.00 | 0.00 | 0.00 | 49 | |
| 20260502151833 | 54 | 62 | 1.0 | 2.0 | 0.00 | 0.00 | 0.00 | 51 | |
| 20260502151241 | 53 | 208 | 0.0 | 3.0 | 0.00 | 0.00 | 0.00 | 52 | |
| 20260502150650 | 53 | 323 | 1.0 | 2.0 | 0.00 | 0.00 | 0.00 | 54 | |
| 20260502130631 | 47 | 57 | 1.0 | 2.0 | 0.00 | 0.00 | 0.00 | 70 | |
| 20260502123635 | 43 | 42 | 0.0 | 0.0 | 0.00 | 0.00 | 0.00 | 85 | |
| 20260502122440 | 42 | 42 | 0.0 | 0.0 | 0.00 | 0.00 | 0.00 | 87 | |
| 20260502121222 | 42 | 44 | 0.0 | 0.0 | 0.00 | 0.00 | 0.00 | 89 | |
| 20260502120644 | 41 | 44 | 1.0 | 1.0 | 0.00 | 0.00 | 0.00 | 90 | |
| 20260502115451 | 40 | 45 | 0.0 | 0.0 | 0.00 | 0.00 | 0.00 | 92 | |
| 20260502114813 | 40 | 45 | 0.0 | 1.0 | 0.00 | 0.00 | 0.00 | 92 | |
| 20260502114232 | 40 | 46 | 0.0 | 1.0 | 0.00 | 0.00 | 0.00 | 92 | |
| 20260502113611 | 40 | 46 | 0.0 | 0.0 | 0.00 | 0.00 | 0.00 | 93 | |
| 20260502113039 | 40 | 46 | 0.0 | 0.0 | 0.00 | 0.00 | 0.00 | 93 | |
| 20260502112437 | 39 | 46 | 0.0 | 1.0 | 0.00 | 0.00 | 0.00 | 94 | |
| 20260502111828 | 39 | 46 | 0.0 | 0.0 | 0.00 | 0.00 | 0.00 | 95 | |
| 20260502111226 | 39 | 46 | 0.0 | 0.0 | 0.00 | 0.00 | 0.00 | 95 | |
| 20260502110017 | 38 | 46 | 0.0 | 0.0 | 0.00 | 0.00 | 0.00 | 95 | |
| 20260502105418 | 38 | 46 | 0.0 | 0.0 | 0.00 | 0.00 | 0.00 | 95 | |
| 20260502104829 | 38 | 46 | 0.0 | 0.0 | 0.00 | 0.00 | 0.00 | 94 | |
| 20260502104217 | 39 | 46 | 0.0 | 0.0 | 0.00 | 0.00 | 0.00 | 94 | |
| 20260502103635 | 39 | 46 | 0.0 | 0.0 | 0.00 | 0.00 | 0.00 | 93 | |
| 20260502103043 | 39 | 46 | 0.0 | 0.0 | 0.00 | 0.00 | 0.00 | 93 | |
| 20260502102419 | 39 | 47 | 0.0 | 1.0 | 0.00 | 0.00 | 0.00 | 93 | |
| 20260502101847 | 39 | 47 | 0.0 | 0.0 | 0.00 | 0.00 | 0.00 | 92 | |
| 20260502100631 | 40 | 46 | 0.0 | 0.0 | 0.00 | 0.00 | 0.00 | 91 | |
| 20260502091252 | 41 | 47 | 0.0 | 0.0 | 0.00 | 0.00 | 0.00 | 85 | |
| 20260502090624 | 42 | 46 | 0.0 | 0.0 | 0.00 | 0.00 | 0.00 | 84 | |
| 20260502071224 | 46 | 55 | 0.0 | 0.0 | 0.00 | 0.00 | 0.00 | 74 | |
| 20260502070652 | 46 | 55 | 0.0 | 0.0 | 0.00 | 0.00 | 0.00 | 72 | |
| 20260502070035 | 46 | 55 | 0.0 | 0.0 | 0.00 | 0.00 | 0.00 | 70 | |
| 20260502063651 | 47 | 55 | 0.0 | 0.0 | 0.00 | 0.00 | 0.00 | 70 | |
| 20260502063042 | 48 | 55 | 0.0 | 0.0 | 0.00 | 0.00 | 0.00 | 69 | |
| 20260502061814 | 48 | 55 | 0.0 | 0.0 | 0.00 | 0.00 | 0.00 | 65 | |
| 20260502061249 | 48 | 60 | 0.0 | 1.0 | 0.00 | 0.00 | 0.00 | 65 | |
| 20260502060622 | 49 | 66 | 0.0 | 1.0 | 0.00 | 0.00 | 0.00 | 68 | |
| 20260502060047 | 49 | 65 | 0.0 | 0.0 | 0.00 | 0.00 | 0.00 | 69 | |
| 20260502055448 | 49 | 56 | 1.0 | 1.0 | 0.00 | 0.00 | 0.00 | 69 | |
| 20260502054820 | 49 | 52 | 0.0 | 2.0 | 0.00 | 0.00 | 0.00 | 69 | |
| 20260502054251 | 49 | 39 | 0.0 | 1.0 | 0.00 | 0.00 | 0.00 | 72 | |
| 20260502053021 | 50 | 138 | 0.0 | 1.0 | 0.00 | 0.00 | 0.00 | 73 | |
| 20260502052415 | 50 | 22 | 0.0 | 1.0 | 0.00 | 0.00 | 0.00 | 74 | |
| 20260502051826 | 50 | 150 | 0.0 | 1.0 | 0.00 | 0.00 | 0.00 | 74 | |
| 20260502051220 | 50 | 164 | 1.0 | 3.0 | 0.00 | 0.00 | 0.00 | 73 | |
| 20260502050628 | 50 | 131 | 1.0 | 3.0 | 0.00 | 0.00 | 0.00 | 73 |